Midland, MI

3:30 PM EDT on June 25, 2017 (GMT -0400)
Barstow

Weather History for KIKW - August, 2013

Change the Weather History Date:

Tuesday, August 20, 2013

  Actual Average (KMBS) Record (KMBS)
Temperature  
Mean Temperature 70 °F -  
Max Temperature 87 °F 77 °F 88 °F (2003)
Min Temperature 54 °F 55 °F 45 °F (2008)
Cooling Degree Days 6    
Growing Degree Days 20 (Base 50)    
Moisture  
Dew Point 60 °F    
Average Humidity 74    
Maximum Humidity 100    
Minimum Humidity 39    
Precipitation  
Precipitation 0.00 in - - ()
Sea Level Pressure  
Sea Level Pressure 30.07 in    
Wind  
Wind Speed 2 mph (WSW)    
Max Wind Speed 12 mph    
Max Gust Speed 16 mph    
Visibility 8 miles    
Events Fog    
Averages and records for this station are not official NWS values.
T = Trace of Precipitation, MM = Missing Value Source: NWS Daily Summary

Daily Weather History Graph

Daily Weather History Graph

Search for Another Location

Airport or City:

Trip Planner

Search our weather history database for the weather conditions in past years. The results will help you decide how hot, cold, wet, or windy it might be!

Date:

Astronomy

Aug. 20, 2013 Rise Set
Actual Time 6:47 AM EDT 8:32 PM EDT
Civil Twilight 6:16 AM EDT 9:02 PM EDT
Nautical Twilight 5:39 AM EDT 9:39 PM EDT
Astronomical Twilight 4:59 AM EDT 10:19 PM EDT
Moon 8:01 PM EDT (8/20) 6:17 AM EDT (8/20)
Length of Visible Light 14h 45m
Length of Day
13h 44m
Full, 100% of the Moon is Illuminated
Aug 20
Full
Aug 20
Full
Aug 28
Last Quarter
Sep 5
New
Sep 12
First Quarter

Hourly Weather History & Observations

Time (EDT) Temp. Heat Index Dew Point Humidity Pressure Visibility Wind Dir Wind Speed Gust Speed Precip Events Conditions
12:14 AM 58.6 °F - 57.6 °F 96% 30.05 in 10.0 mi Calm Calm - N/A   Clear
12:34 AM 59.5 °F - 58.8 °F 97% 30.05 in 10.0 mi Calm Calm - N/A   Clear
12:53 AM 58.1 °F - 57.4 °F 97% 30.05 in 7.0 mi Calm Calm - N/A   Clear
1:13 AM 59.4 °F - 58.8 °F 98% 30.05 in 10.0 mi Calm Calm - N/A   Clear
1:34 AM 58.3 °F - 57.7 °F 98% 30.05 in 7.0 mi Calm Calm - N/A   Clear
1:53 AM 57.6 °F - 57.0 °F 98% 30.05 in 7.0 mi Calm Calm - N/A   Clear
2:13 AM 57.4 °F - 57.0 °F 99% 30.05 in 4.0 mi Calm Calm - N/A   Clear
2:34 AM 56.3 °F - 55.8 °F 98% 30.05 in 5.0 mi Calm Calm - N/A   Clear
2:53 AM 56.8 °F - 56.5 °F 99% 30.05 in 5.0 mi Calm Calm - N/A   Clear
3:13 AM 56.7 °F - 56.3 °F 99% 30.05 in 3.0 mi Calm Calm - N/A   Clear
3:34 AM 56.3 °F - 55.9 °F 99% 30.06 in 2.5 mi Calm Calm - N/A   Clear
3:53 AM 55.8 °F - 55.6 °F 99% 30.06 in 1.2 mi Calm Calm - N/A   Mist
4:13 AM 56.1 °F - 55.9 °F 99% 30.06 in 0.5 mi Calm Calm - N/A Fog Fog
4:34 AM 56.3 °F - 56.1 °F 99% 30.06 in 5.0 mi Calm Calm - N/A   Clear
4:53 AM 54.9 °F - 54.7 °F 99% 30.06 in 0.5 mi Calm Calm - N/A Fog Fog
5:13 AM 56.1 °F - 55.9 °F 99% 30.06 in 1.2 mi Calm Calm - N/A   Mist
5:33 AM 55.6 °F - 55.4 °F 99% 30.06 in 2.5 mi Calm Calm - N/A   Clear
5:53 AM 54.5 °F - 54.1 °F 99% 30.07 in 2.0 mi Calm Calm - N/A   Clear
6:14 AM 54.5 °F - 54.3 °F 99% 30.07 in 0.8 mi Calm Calm - N/A   Mist
6:34 AM 54.5 °F - 54.5 °F 100% 30.08 in 4.0 mi Calm Calm - N/A   Clear
6:53 AM 55.0 °F - 54.9 °F 99% 30.09 in 5.0 mi Calm Calm - N/A   Clear
7:14 AM 55.6 °F - 55.4 °F 99% 30.09 in 2.0 mi Calm Calm - N/A   Clear
7:33 AM 55.8 °F - 55.6 °F 99% 30.10 in 3.0 mi Calm Calm - N/A   Clear
7:53 AM 57.6 °F - 57.4 °F 99% 30.10 in 3.0 mi Calm Calm - N/A   Scattered Clouds
8:01 AM 57.7 °F - 57.6 °F 99% 30.11 in 4.0 mi Calm Calm - N/A   Scattered Clouds
8:34 AM 63.0 °F - 61.5 °F 95% 30.11 in 10.0 mi Calm Calm - N/A   Clear
8:53 AM 65.3 °F - 61.3 °F 87% 30.11 in 10.0 mi Calm Calm - N/A   Clear
9:13 AM 67.6 °F - 61.7 °F 81% 30.12 in 10.0 mi WSW 4.6 mph - N/A   Clear
9:34 AM 70.3 °F - 62.8 °F 77% 30.11 in 10.0 mi WSW 4.6 mph - N/A   Clear
9:54 AM 72.1 °F - 63.5 °F 74% 30.12 in 10.0 mi SW 4.6 mph - N/A   Clear
10:13 AM 73.6 °F - 63.1 °F 70% 30.11 in 10.0 mi SW 3.5 mph - N/A   Clear
10:34 AM 75.9 °F - 64.0 °F 67% 30.11 in 10.0 mi West 4.6 mph - N/A   Clear
10:53 AM 77.5 °F - 64.2 °F 63% 30.11 in 10.0 mi WSW 5.8 mph - N/A   Clear
11:13 AM 79.0 °F - 64.4 °F 61% 30.11 in 10.0 mi SW 6.9 mph - N/A   Clear
11:34 AM 81.0 °F 82.9 °F 65.3 °F 59% 30.11 in 10.0 mi WSW 8.1 mph - N/A   Clear
11:53 AM 82.4 °F 84.2 °F 65.3 °F 56% 30.11 in 10.0 mi West 6.9 mph - N/A   Clear
12:13 PM 82.4 °F 84.2 °F 65.1 °F 56% 30.11 in 10.0 mi WSW 8.1 mph - N/A   Clear
12:34 PM 83.5 °F 85.5 °F 65.8 °F 55% 30.11 in 10.0 mi WSW 9.2 mph - N/A   Mostly Cloudy
12:53 PM 83.3 °F 84.8 °F 64.8 °F 53% 30.10 in 10.0 mi SW 8.1 mph - N/A   Mostly Cloudy
1:14 PM 84.2 °F 85.8 °F 64.8 °F 52% 30.10 in 10.0 mi WSW 9.2 mph - N/A   Scattered Clouds
1:34 PM 84.4 °F 85.2 °F 63.0 °F 48% 30.10 in 10.0 mi West 11.5 mph - N/A   Mostly Cloudy
1:53 PM 84.9 °F 86.1 °F 63.7 °F 49% 30.09 in 10.0 mi West 9.2 mph 16.1 mph N/A   Scattered Clouds
2:14 PM 85.6 °F 86.1 °F 62.1 °F 45% 30.08 in 10.0 mi WSW 10.4 mph 16.1 mph N/A   Scattered Clouds
2:34 PM 86.0 °F 86.3 °F 61.5 °F 44% 30.08 in 10.0 mi WSW 11.5 mph - N/A   Mostly Cloudy
2:53 PM 86.0 °F 86.1 °F 61.2 °F 43% 30.08 in 10.0 mi WSW 10.4 mph - N/A   Scattered Clouds
3:14 PM 86.0 °F 86.1 °F 60.8 °F 43% 30.07 in 10.0 mi West 8.1 mph - N/A   Scattered Clouds
3:34 PM 86.7 °F 86.8 °F 61.2 °F 42% 30.07 in 10.0 mi WSW 11.5 mph - N/A   Scattered Clouds
3:53 PM 87.3 °F 87.2 °F 60.6 °F 41% 30.06 in 10.0 mi West 8.1 mph - N/A   Clear
4:14 PM 87.3 °F 86.7 °F 59.4 °F 39% 30.06 in 10.0 mi SW 11.5 mph - N/A   Clear
4:34 PM 87.1 °F 86.5 °F 59.2 °F 39% 30.06 in 10.0 mi WSW 9.2 mph - N/A   Clear
4:53 PM 86.7 °F 86.3 °F 59.5 °F 40% 30.06 in 10.0 mi WSW 8.1 mph - N/A   Clear
5:14 PM 86.7 °F 86.5 °F 60.4 °F 41% 30.05 in 5.0 mi WSW 8.1 mph - N/A   Haze
5:33 PM 86.5 °F 86.1 °F 59.7 °F 40% 30.05 in 10.0 mi WSW 10.4 mph 16.1 mph N/A   Clear
5:54 PM 86.2 °F 86.1 °F 60.6 °F 42% 30.05 in 10.0 mi West 6.9 mph - N/A   Clear
6:14 PM 86.0 °F 86.1 °F 61.0 °F 43% 30.05 in 10.0 mi WSW 6.9 mph - N/A   Clear
6:33 PM 84.7 °F 85.0 °F 61.2 °F 45% 30.05 in 10.0 mi WSW 9.2 mph - N/A   Clear
6:54 PM 84.2 °F 84.8 °F 62.1 °F 47% 30.05 in 10.0 mi WSW 4.6 mph - N/A   Clear
7:14 PM 83.3 °F 84.1 °F 62.2 °F 49% 30.05 in 10.0 mi SW 4.6 mph - N/A   Clear
7:33 PM 82.4 °F 83.5 °F 63.3 °F 52% 30.05 in 10.0 mi SW 3.5 mph - N/A   Clear
7:54 PM 80.8 °F 82.2 °F 63.5 °F 56% 30.05 in 10.0 mi WSW 3.5 mph - N/A   Clear
8:13 PM 79.7 °F - 63.7 °F 58% 30.05 in 10.0 mi WSW 4.6 mph - N/A   Clear
8:34 PM 77.7 °F - 63.5 °F 61% 30.06 in 10.0 mi WSW 3.5 mph - N/A   Clear
8:54 PM 74.7 °F - 63.7 °F 69% 30.06 in 10.0 mi Calm Calm - N/A   Clear
9:13 PM 70.9 °F - 64.4 °F 80% 30.07 in 10.0 mi Calm Calm - N/A   Clear
9:34 PM 69.4 °F - 64.0 °F 83% 30.07 in 10.0 mi Calm Calm - N/A   Clear
9:54 PM 70.3 °F - 63.5 °F 79% 30.07 in 10.0 mi Calm Calm - N/A   Clear
10:13 PM 68.4 °F - 63.5 °F 84% 30.08 in 10.0 mi Calm Calm - N/A   Clear
10:34 PM 67.6 °F - 63.5 °F 87% 30.08 in 10.0 mi Calm Calm - N/A   Clear
10:54 PM 66.6 °F - 62.4 °F 86% 30.08 in 10.0 mi Calm Calm - N/A   Clear
11:13 PM 65.3 °F - 63.3 °F 93% 30.08 in 10.0 mi Calm Calm - N/A   Clear
11:34 PM 64.8 °F - 63.5 °F 96% 30.08 in 10.0 mi Calm Calm - N/A   Clear
11:54 PM 65.3 °F - 63.3 °F 93% 30.08 in 10.0 mi Calm Calm - N/A   Clear